Flag for Russia Weather past 2 weeks in Syktyvkar, Russia

41 °F

Scattered clouds.

Feels Like: 36 °F
Forecast: 32 / 47 °F
Wind: 8 mph from Northwest

Location: Syktyvkar Airport

Current Time: Oct 4, 2015 at 1:01:10 PM

Latest Report: Oct 4, 2015 at 12:00 PM

Visibility: N/A

Pressure: 29.86 "Hg

Humidity: 66%

Dew point: 30 °F

Location of SyktyvkarLocation

Historic Weather in Syktyvkar — Graph


Syktyvkar temperature yesterday

Maximum temperature yesterday: 43 °F (at 12:30 PM)
Minimum temperature yesterday: 36 °F (at 9:00 PM)
Average temperature yesterday: 39 °F

Past Weeks' High & Low Weather Summary

High75 °F (Sep 27, 1:30 PM)100% (Sep 19, 4:00 PM)30.30 "Hg (Sep 19, 4:00 PM)
Low32 °F (Sep 30, 5:00 AM)34% (Sep 27, 3:00 PM)28.85 "Hg (Oct 3, 6:00 AM)
Average50 °F85%29.92 "Hg
* Reported Sep 19 11:00 AM — Oct 4 11:30 AM, Syktyvkar, Weather by CustomWeather, © 2015

Note: Actual official high and low records may vary slightly from our data, if they occured in-between our weather recording intervals... More about our weather records


Syktyvkar weather history for previous 24 hours

Time TempWeatherWind HumidityBarometerVisibility
11:30 AM
Sun, Oct 4
39 °FScattered clouds.10 mph75%29.86 "HgN/A
11:00 AM39 °FScattered clouds.6 mph75%29.86 "HgN/A
10:30 AM39 °FScattered clouds.8 mph65%29.83 "HgN/A
10:00 AM39 °FPartly sunny.8 mph65%29.83 "HgN/A
9:30 AM39 °FPartly sunny.8 mph70%29.83 "HgN/A
9:00 AM37 °FPartly sunny.8 mph81%29.83 "HgN/A
8:30 AM37 °FPartly sunny.6 mph81%29.80 "HgN/A
8:00 AM36 °FScattered clouds.6 mph87%29.80 "HgN/A
7:00 AM36 °FPartly sunny.8 mph81%29.77 "HgN/A
6:30 AM36 °FPassing clouds.8 mph81%29.74 "HgN/A
6:00 AM36 °FPartly cloudy.6 mph81%29.74 "HgN/A
5:30 AM36 °FPartly cloudy.8 mph81%29.74 "HgN/A
5:00 AM36 °FPartly cloudy.6 mph87%29.74 "HgN/A
4:30 AM36 °FPartly cloudy.8 mph87%29.71 "HgN/A
4:00 AM36 °FPartly cloudy.6 mph87%29.71 "HgN/A
3:30 AM36 °FPartly cloudy.6 mph87%29.68 "HgN/A
3:00 AM36 °FPartly cloudy.8 mph87%29.68 "HgN/A
2:30 AM36 °FSprinkles. Partly cloudy.8 mph87%29.65 "HgN/A
2:00 AM36 °FSprinkles. Partly cloudy.8 mph87%29.65 "Hg6 mi
1:30 AM36 °FPassing clouds.8 mph87%29.62 "HgN/A
1:00 AM36 °FPassing clouds.8 mph87%29.62 "HgN/A
12:30 AM36 °FPassing clouds.8 mph87%29.59 "HgN/A
12:00 AM37 °FPassing clouds.10 mph75%29.59 "HgN/A
11:30 PM
Sat, Oct 3
36 °FPassing clouds.8 mph87%29.56 "HgN/A
11:00 PM36 °FPassing clouds.6 mph87%29.56 "HgN/A
10:30 PM36 °FPassing clouds.8 mph81%29.53 "HgN/A
10:00 PM37 °FPassing clouds.8 mph81%29.53 "HgN/A
9:30 PM37 °FPassing clouds.6 mph75%29.50 "HgN/A
9:00 PM36 °FClear.6 mph81%29.50 "Hg10 mi
8:30 PM37 °FClear.6 mph81%29.47 "Hg10 mi
8:00 PM37 °FPassing clouds.6 mph81%29.45 "HgN/A
7:30 PM37 °FPassing clouds.6 mph81%29.45 "HgN/A
7:00 PM37 °FPassing clouds.6 mph81%29.42 "HgN/A
6:30 PM39 °FPassing clouds.6 mph75%29.39 "HgN/A
6:00 PM39 °FPartly sunny.8 mph75%29.36 "HgN/A
5:30 PM39 °FPartly sunny.8 mph75%29.36 "HgN/A
5:00 PM41 °FPartly sunny.10 mph70%29.33 "HgN/A
4:30 PM41 °FPartly sunny.10 mph76%29.27 "HgN/A
4:00 PM41 °FPartly sunny.8 mph76%29.24 "HgN/A
3:30 PM41 °FPartly sunny.10 mph76%29.24 "HgN/A
3:00 PM41 °FScattered clouds.13 mph76%29.21 "HgN/A
2:30 PM43 °FScattered clouds.10 mph71%29.18 "HgN/A
2:00 PM41 °FPartly sunny.10 mph76%29.15 "HgN/A
1:30 PM41 °FSprinkles. Partly sunny.13 mph81%29.12 "HgN/A
1:00 PM39 °FSprinkles. Partly sunny.15 mph87%29.09 "Hg6 mi
Weather by CustomWeather, © 2015

See weather overviewHow to use our weather pages